Location: Pasadena, ca
(34.1243°N, 118.1037°W)
Time: 09:42:50
(UTC-08:00)

N. Korean satellite - Visible Passes

Search period start: 19 February 2018 00:00
Search period end: 01 March 2018 00:00
Orbit: 459 x 514 km, 97.2° (Epoch: 18 February)

Date Brightness Start Highest point End Pass type
(mag) Time Alt. Az. Time Alt. Az. Time Alt. Az.
19 Feb 8.7 06:02:44 10° NNE 06:06:07 35° E 06:09:32 10° SSE visible
19 Feb 7.7 18:08:29 10° S 18:11:48 47° W 18:15:09 10° NNW visible
20 Feb 10.1 05:39:50 10° NE 05:42:18 17° E 05:44:48 10° SE visible
21 Feb 10.4 18:57:17 10° WSW 18:58:00 10° W 18:58:42 10° W visible
22 Feb 9.4 18:31:22 10° SSW 18:34:07 22° W 18:36:52 10° NW visible
23 Feb 8.8 06:01:16 10° NNE 06:04:39 34° E 06:08:04 10° SSE visible
23 Feb 7.6 18:06:57 10° S 18:10:17 49° W 18:13:41 10° NNW visible
24 Feb 10.1 05:38:23 10° NE 05:40:49 17° E 05:43:17 10° SE visible
25 Feb 10.4 18:55:25 10° WSW 18:56:27 11° W 18:57:29 10° WNW visible
26 Feb 9.3 18:29:44 10° SSW 18:32:33 23° W 18:35:24 10° NW visible
28 Feb 10.1 05:36:53 10° NE 05:39:18 16° E 05:41:41 10° SE visible
